QPF
0.00 0.00 0.00 0.00 0.00 0.00 0.00 0.00 0.00 0.00 0.00 0.00 0.00 0.00 0.00 0.00 0.00 0.00 0.00 0.00 0.00 0.00 0.00 0.00 0.00 0.00 0.00 0.00 0.00 0.00 0.00 0.00 0.00 0.00 0.00 0.00 0.00 0.00 0.00 0.00 0.00 0.00 0.00
0.00 0.00 0.00 0.00 0.00 0.00 0.00 0.00 0.00 0.00 0.00 0.00 0.00 0.00 0.00 0.00 0.00 0.00 0.00 0.00 0.00 0.00 0.00 0.00 0.00 0.00 0.00 0.00 0.00 0.00 0.00 0.00 0.00 0.00 0.00 0.00 0.00 0.00 0.00 0.00 0.00 0.00 0.00
0.00 0.00 0.00 0.00 0.00 0.00 0.00 0.00 0.00 0.00 0.00 0.00 0.00 0.00 0.00 0.00 0.00 0.00 0.00 0.00 0.00 0.00 0.00 0.00 0.00 0.00 0.00 0.00 0.00 0.00 0.00 0.00 0.00 0.00 0.00 0.00 0.00 0.00 0.00 0.00 0.00 0.00 0.00
0.00 0.00 0.00 0.00 0.00 0.00 0.00 0.00 0.00 0.00 0.00 0.00 0.00 0.00 0.00 0.00 0.00 0.00 0.00 0.00 0.00 0.00 0.00 0.00 0.00 0.00 0.00 0.00 0.00 0.00 0.01 0.01 0.01 0.00 0.00 0.00 0.00 0.01 0.00 0.00 0.00 0.00 0.00
0.00 0.00 0.00 0.00 0.00 0.00 0.00 0.00 0.00 0.00 0.00 0.00 0.00 0.00 0.00 0.00 0.00 0.00 0.00 0.00 0.00 0.00 0.00 0.00 0.00 0.00 0.00 0.00 0.01 0.01 0.02 0.02 0.02 0.02 0.02 0.02 0.02 0.02 0.02 0.02 0.00 0.00 0.00
0.00 0.00 0.00 0.00 0.00 0.00 0.00 0.00 0.00 0.00 0.00 0.00 0.00 0.00 0.00 0.00 0.00 0.00 0.00 0.00 0.00 0.00 0.00 0.00 0.00 0.00 0.00 0.01 0.01 0.02 0.03 0.04 0.04 0.04 0.05 0.05 0.04 0.03 0.02 0.02 0.01 0.01 0.00
0.00 0.00 0.00 0.00 0.00 0.00 0.00 0.00 0.00 0.00 0.00 0.00 0.00 0.00 0.00 0.00 0.00 0.00 0.00 0.00 0.00 0.00 0.00 0.00 0.00 0.00 0.00 0.01 0.01 0.02 0.03 0.04 0.05 0.07 0.08 0.09 0.09 0.07 0.06 0.05 0.03 0.02 0.01
0.00 0.00 0.00 0.00 0.00 0.00 0.00 0.00 0.00 0.00 0.00 0.00 0.00 0.00 0.00 0.00 0.00 0.00 0.00 0.00 0.00 0.00 0.00 0.00 0.00 0.00 0.00 0.01 0.01 0.02 0.03 0.05 0.06 0.08 0.10 0.12 0.13 0.15 0.15 0.14 0.13 0.11 0.06
0.00 0.00 0.00 0.00 0.00 0.00 0.00 0.00 0.00 0.00 0.00 0.00 0.00 0.00 0.00 0.00 0.00 0.00 0.00 0.00 0.00 0.00 0.00 0.00 0.00 0.00 0.00 0.00 0.01 0.01 0.02 0.04 0.06 0.07 0.10 0.12 0.13 0.15 0.17 0.18 0.20 0.20 0.17
0.00 0.00 0.00 0.00 0.00 0.00 0.00 0.00 0.00 0.00 0.00 0.00 0.00 0.00 0.00 0.00 0.00 0.00 0.00 0.00 0.00 0.00 0.00 0.00 0.00 0.00 0.00 0.00 0.00 0.00 0.01 0.02 0.03 0.04 0.06 0.08 0.09 0.11 0.13 0.15 0.17 0.20 0.21
0.00 0.00 0.00 0.00 0.00 0.00 0.00 0.00 0.00 0.00 0.00 0.00 0.00 0.00 0.00 0.00 0.00 0.00 0.00 0.00 0.00 0.00 0.00 0.00 0.00 0.00 0.00 0.00 0.00 0.00 0.00 0.00 0.01 0.02 0.03 0.05 0.07 0.08 0.09 0.11 0.12 0.14 0.17
0.00 0.00 0.00 0.00 0.00 0.00 0.00 0.00 0.00 0.00 0.00 0.00 0.00 0.00 0.00 0.00 0.00 0.00 0.00 0.00 0.00 0.00 0.00 0.00 0.00 0.00 0.00 0.00 0.00 0.00 0.00 0.00 0.00 0.00 0.01 0.02 0.03 0.04 0.06 0.08 0.09 0.10 0.13
0.00 0.00 0.00 0.00 0.00 0.00 0.00 0.00 0.00 0.00 0.00 0.00 0.00 0.00 0.00 0.00 0.00 0.00 0.00 0.00 0.00 0.00 0.00 0.00 0.00 0.00 0.00 0.00 0.00 0.00 0.00 0.00 0.00 0.00 0.00 0.00 0.01 0.01 0.02 0.04 0.06 0.08 0.10
0.00 0.00 0.00 0.00 0.00 0.00 0.00 0.00 0.00 0.00 0.00 0.00 0.00 0.00 0.00 0.00 0.00 0.00 0.00 0.00 0.00 0.00 0.00 0.00 0.00 0.00 0.00 0.00 0.00 0.00 0.00 0.00 0.00 0.00 0.00 0.00 0.00 0.00 0.01 0.02 0.03 0.06 0.09
0.00 0.00 0.00 0.00 0.00 0.00 0.00 0.00 0.00 0.00 0.00 0.00 0.00 0.00 0.00 0.00 0.00 0.00 0.00 0.00 0.00 0.00 0.00 0.00 0.00 0.00 0.00 0.00 0.00 0.00 0.00 0.00 0.00 0.00 0.00 0.00 0.00 0.00 0.00 0.01 0.01 0.03 0.06
0.00 0.00 0.00 0.00 0.00 0.00 0.00 0.00 0.00 0.00 0.00 0.00 0.00 0.00 0.00 0.00 0.00 0.00 0.00 0.00 0.00 0.00 0.00 0.00 0.00 0.00 0.00 0.00 0.00 0.00 0.00 0.00 0.00 0.00 0.00 0.00 0.00 0.00 0.00 0.01 0.01 0.01 0.03
0.00 0.00 0.00 0.00 0.00 0.00 0.00 0.00 0.00 0.00 0.00 0.00 0.00 0.00 0.00 0.00 0.00 0.00 0.00 0.00 0.00 0.00 0.00 0.00 0.00 0.00 0.00 0.00 0.00 0.00 0.00 0.00 0.00 0.00 0.00 0.00 0.00 0.00 0.00 0.00 0.00 0.00 0.01
0.00 0.00 0.00 0.00 0.00 0.00 0.00 0.00 0.00 0.00 0.00 0.00 0.00 0.00 0.00 0.00 0.00 0.00 0.00 0.00 0.00 0.00 0.00 0.00 0.00 0.00 0.00 0.00 0.00 0.00 0.00 0.00 0.00 0.00 0.00 0.00 0.00 0.00 0.00 0.00 0.00 0.00 0.00
0.00 0.00 0.00 0.00 0.00 0.00 0.00 0.00 0.00 0.00 0.00 0.00 0.00 0.00 0.00 0.00 0.00 0.00 0.00 0.00 0.00 0.00 0.00 0.00 0.00 0.00 0.00 0.00 0.00 0.00 0.00 0.00 0.00 0.00 0.00 0.00 0.00 0.00 0.00 0.00 0.00 0.00 0.00
0.00 0.00 0.00 0.00 0.00 0.00 0.00 0.00 0.00 0.00 0.00 0.00 0.00 0.00 0.00 0.00 0.00 0.00 0.00 0.00 0.00 0.00 0.00 0.00 0.00 0.00 0.00 0.00 0.00 0.00 0.00 0.00 0.00 0.00 0.00 0.00 0.00 0.00 0.00 0.00 0.01 0.01 0.01
0.00 0.00 0.00 0.00 0.00 0.00 0.00 0.00 0.00 0.00 0.00 0.00 0.00 0.00 0.00 0.00 0.00 0.00 0.00 0.00 0.00 0.00 0.00 0.00 0.00 0.00 0.00 0.00 0.00 0.00 0.00 0.00 0.00 0.00 0.00 0.00 0.00 0.00 0.00 0.00 0.01 0.01 0.02
0.00 0.00 0.00 0.00 0.00 0.00 0.00 0.00 0.00 0.00 0.00 0.00 0.00 0.00 0.00 0.00 0.00 0.00 0.00 0.00 0.00 0.00 0.00 0.00 0.00 0.00 0.00 0.00 0.00 0.00 0.00 0.01 0.01 0.00 0.00 0.00 0.00 0.00 0.00 0.01 0.01 0.02 0.02
0.00 0.00 0.00 0.00 0.00 0.00 0.00 0.00 0.00 0.00 0.00 0.00 0.00 0.00 0.00 0.00 0.00 0.00 0.00 0.00 0.00 0.00 0.00 0.00 0.00 0.00 0.00 0.00 0.00 0.00 0.01 0.01 0.01 0.00 0.00 0.00 0.00 0.00 0.00 0.01 0.01 0.01 0.02
0.00 0.00 0.00 0.00 0.00 0.00 0.00 0.00 0.00 0.00 0.00 0.00 0.00 0.00 0.00 0.00 0.00 0.00 0.00 0.00 0.00 0.00 0.00 0.00 0.00 0.00 0.00 0.00 0.00 0.00 0.00 0.00 0.00 0.00 0.00 0.00 0.00 0.00 0.00 0.01 0.01 0.01 0.03
0.00 0.00 0.00 0.00 0.00 0.00 0.00 0.00 0.00 0.00 0.00 0.00 0.00 0.00 0.00 0.00 0.00 0.00 0.00 0.00 0.00 0.00 0.00 0.00 0.00 0.00 0.00 0.00 0.01 0.02 0.01 0.01 0.01 0.01 0.01 0.00 0.00 0.00 0.00 0.01 0.02 0.03 0.04
0.00 0.00 0.00 0.00 0.00 0.00 0.00 0.00 0.00 0.00 0.00 0.00 0.00 0.00 0.00 0.00 0.00 0.00 0.00 0.00 0.00 0.00 0.00 0.00 0.01 0.01 0.01 0.01 0.02 0.02 0.02 0.01 0.01 0.01 0.01 0.01 0.01 0.01 0.02 0.03 0.03 0.04 0.06
MSLP
1011.47 1011.32 1011.07 1010.71 1010.27 1009.79 1009.33 1008.92 1008.62 1008.44 1008.40 1008.47 1008.64 1008.87 1009.12 1009.34 1009.52 1009.62 1009.66 1009.63 1009.56 1009.48 1009.41 1009.38 1009.40 1009.46 1009.57 1009.70 1009.82 1009.90 1009.93 1009.87 1009.73 1009.51 1009.22 1008.88 1008.52 1008.16 1007.82 1007.52 1007.26 1007.04 1006.86
1012.09 1011.98 1011.73 1011.35 1010.86 1010.32 1009.77 1009.29 1008.93 1008.70 1008.63 1008.69 1008.84 1009.05 1009.27 1009.44 1009.55 1009.57 1009.52 1009.40 1009.25 1009.10 1008.97 1008.88 1008.85 1008.86 1008.91 1008.97 1009.02 1009.03 1008.99 1008.89 1008.71 1008.47 1008.18 1007.86 1007.52 1007.17 1006.85 1006.55 1006.28 1006.05 1005.87
1012.58 1012.52 1012.31 1011.93 1011.43 1010.86 1010.28 1009.77 1009.39 1009.15 1009.08 1009.13 1009.28 1009.47 1009.65 1009.76 1009.80 1009.73 1009.58 1009.38 1009.14 1008.90 1008.69 1008.53 1008.42 1008.34 1008.30 1008.26 1008.21 1008.12 1008.00 1007.84 1007.62 1007.37 1007.09 1006.78 1006.47 1006.14 1005.83 1005.53 1005.26 1005.01 1004.80
1012.87 1012.88 1012.71 1012.38 1011.91 1011.37 1010.81 1010.32 1009.95 1009.74 1009.68 1009.75 1009.89 1010.06 1010.20 1010.26 1010.22 1010.08 1009.84 1009.55 1009.22 1008.90 1008.60 1008.35 1008.14 1007.96 1007.79 1007.63 1007.46 1007.26 1007.05 1006.81 1006.56 1006.29 1006.01 1005.72 1005.42 1005.12 1004.80 1004.49 1004.18 1003.89 1003.63
1012.95 1013.03 1012.94 1012.68 1012.29 1011.82 1011.33 1010.90 1010.58 1010.41 1010.38 1010.46 1010.60 1010.75 1010.85 1010.86 1010.76 1010.54 1010.24 1009.87 1009.47 1009.07 1008.70 1008.35 1008.04 1007.74 1007.45 1007.16 1006.86 1006.54 1006.23 1005.91 1005.60 1005.31 1005.02 1004.73 1004.44 1004.12 1003.78 1003.43 1003.06 1002.70 1002.38
1012.85 1013.00 1013.01 1012.86 1012.58 1012.21 1011.82 1011.48 1011.24 1011.12 1011.12 1011.21 1011.34 1011.47 1011.53 1011.49 1011.33 1011.06 1010.71 1010.29 1009.84 1009.39 1008.95 1008.53 1008.12 1007.72 1007.31 1006.89 1006.46 1006.02 1005.61 1005.21 1004.84 1004.51 1004.19 1003.88 1003.56 1003.21 1002.82 1002.39 1001.94 1001.49 1001.06
1012.62 1012.86 1012.98 1012.96 1012.81 1012.57 1012.30 1012.06 1011.89 1011.82 1011.84 1011.93 1012.04 1012.13 1012.15 1012.07 1011.87 1011.57 1011.19 1010.75 1010.28 1009.80 1009.32 1008.85 1008.37 1007.87 1007.36 1006.82 1006.28 1005.74 1005.22 1004.75 1004.31 1003.92 1003.56 1003.20 1002.83 1002.42 1001.95 1001.43 1000.87 1000.30 999.77
1012.35 1012.69 1012.93 1013.04 1013.03 1012.92 1012.77 1012.62 1012.51 1012.47 1012.50 1012.57 1012.65 1012.70 1012.67 1012.56 1012.33 1012.02 1011.63 1011.19 1010.73 1010.24 1009.75 1009.25 1008.72 1008.15 1007.56 1006.93 1006.30 1005.66 1005.06 1004.51 1004.01 1003.55 1003.13 1002.71 1002.27 1001.77 1001.21 1000.58 999.91 999.23 998.58
1012.13 1012.57 1012.92 1013.16 1013.27 1013.29 1013.23 1013.16 1013.09 1013.07 1013.09 1013.12 1013.15 1013.15 1013.08 1012.92 1012.69 1012.37 1012.00 1011.58 1011.13 1010.66 1010.18 1009.66 1009.10 1008.49 1007.84 1007.15 1006.44 1005.74 1005.07 1004.45 1003.89 1003.37 1002.88 1002.39 1001.87 1001.29 1000.63 999.91 999.13 998.34 997.58
1012.02 1012.55 1013.00 1013.34 1013.56 1013.67 1013.69 1013.66 1013.62 1013.59 1013.57 1013.56 1013.54 1013.48 1013.37 1013.18 1012.93 1012.62 1012.27 1011.88 1011.46 1011.01 1010.54 1010.02 1009.44 1008.81 1008.12 1007.38 1006.63 1005.88 1005.16 1004.49 1003.87 1003.30 1002.76 1002.20 1001.61 1000.96 1000.23 999.42 998.57 997.69 996.85
1012.06 1012.66 1013.18 1013.60 1013.89 1014.06 1014.13 1014.13 1014.09 1014.04 1013.98 1013.92 1013.84 1013.73 1013.57 1013.36 1013.10 1012.80 1012.46 1012.09 1011.69 1011.26 1010.79 1010.27 1009.68 1009.03 1008.31 1007.55 1006.77 1005.99 1005.24 1004.54 1003.89 1003.28 1002.70 1002.10 1001.46 1000.76 999.98 999.13 998.23 997.31 996.41
1012.25 1012.89 1013.46 1013.92 1014.25 1014.45 1014.54 1014.54 1014.49 1014.42 1014.32 1014.22 1014.09 1013.94 1013.75 1013.51 1013.24 1012.94 1012.60 1012.23 1011.84 1011.41 1010.93 1010.40 1009.79 1009.12 1008.39 1007.61 1006.82 1006.03 1005.27 1004.55 1003.89 1003.26 1002.65 1002.03 1001.37 1000.65 999.85 998.99 998.08 997.14 996.22
1012.58 1013.23 1013.81 1014.28 1014.61 1014.82 1014.91 1014.91 1014.86 1014.76 1014.64 1014.50 1014.34 1014.16 1013.94 1013.69 1013.40 1013.09 1012.74 1012.36 1011.95 1011.49 1010.99 1010.43 1009.79 1009.10 1008.35 1007.56 1006.76 1005.97 1005.21 1004.49 1003.82 1003.19 1002.57 1001.95 1001.28 1000.57 999.78 998.93 998.03 997.11 996.19
1012.99 1013.64 1014.20 1014.65 1014.97 1015.16 1015.25 1015.25 1015.18 1015.08 1014.95 1014.80 1014.62 1014.42 1014.19 1013.92 1013.61 1013.28 1012.90 1012.49 1012.04 1011.55 1011.00 1010.39 1009.73 1009.00 1008.23 1007.43 1006.63 1005.84 1005.08 1004.37 1003.70 1003.07 1002.45 1001.82 1001.17 1000.46 999.69 998.87 997.99 997.09 996.18
1013.47 1014.08 1014.60 1015.01 1015.30 1015.48 1015.55 1015.56 1015.50 1015.40 1015.28 1015.13 1014.95 1014.74 1014.50 1014.22 1013.89 1013.52 1013.11 1012.66 1012.16 1011.61 1011.01 1010.35 1009.64 1008.88 1008.09 1007.28 1006.47 1005.68 1004.93 1004.22 1003.54 1002.91 1002.28 1001.65 1000.99 1000.29 999.53 998.72 997.87 996.98 996.06
1013.95 1014.52 1014.99 1015.36 1015.61 1015.77 1015.85 1015.85 1015.81 1015.73 1015.62 1015.48 1015.32 1015.11 1014.86 1014.56 1014.21 1013.81 1013.36 1012.86 1012.30 1011.70 1011.04 1010.34 1009.58 1008.79 1007.98 1007.15 1006.34 1005.54 1004.78 1004.06 1003.37 1002.71 1002.07 1001.41 1000.73 1000.01 999.25 998.43 997.57 996.67 995.74
1014.43 1014.94 1015.36 1015.68 1015.91 1016.05 1016.13 1016.14 1016.12 1016.06 1015.97 1015.85 1015.68 1015.48 1015.22 1014.90 1014.53 1014.10 1013.61 1013.06 1012.46 1011.81 1011.11 1010.36 1009.57 1008.76 1007.92 1007.08 1006.26 1005.45 1004.67 1003.92 1003.20 1002.50 1001.81 1001.11 1000.38 999.62 998.81 997.96 997.06 996.13 995.17
1014.87 1015.32 1015.70 1015.99 1016.19 1016.33 1016.40 1016.43 1016.42 1016.37 1016.29 1016.17 1016.01 1015.79 1015.52 1015.19 1014.79 1014.33 1013.81 1013.23 1012.60 1011.91 1011.18 1010.41 1009.60 1008.76 1007.91 1007.06 1006.21 1005.38 1004.58 1003.79 1003.02 1002.27 1001.51 1000.73 999.93 999.09 998.22 997.30 996.34 995.35 994.33
1015.26 1015.67 1016.01 1016.27 1016.46 1016.59 1016.67 1016.70 1016.69 1016.65 1016.56 1016.43 1016.25 1016.01 1015.72 1015.36 1014.94 1014.45 1013.91 1013.31 1012.66 1011.96 1011.22 1010.43 1009.61 1008.77 1007.91 1007.04 1006.18 1005.32 1004.48 1003.64 1002.82 1001.99 1001.15 1000.29 999.40 998.48 997.51 996.51 995.47 994.41 993.32
1015.60 1015.98 1016.30 1016.54 1016.72 1016.85 1016.92 1016.95 1016.93 1016.86 1016.75 1016.59 1016.37 1016.10 1015.77 1015.38 1014.94 1014.44 1013.89 1013.28 1012.63 1011.93 1011.18 1010.39 1009.57 1008.72 1007.85 1006.97 1006.09 1005.20 1004.32 1003.44 1002.56 1001.66 1000.75 999.80 998.83 997.81 996.75 995.66 994.54 993.41 992.26
1015.89 1016.26 1016.56 1016.79 1016.97 1017.08 1017.14 1017.15 1017.10 1017.00 1016.84 1016.63 1016.37 1016.05 1015.69 1015.27 1014.80 1014.29 1013.73 1013.13 1012.48 1011.78 1011.03 1010.25 1009.42 1008.57 1007.69 1006.80 1005.90 1005.00 1004.09 1003.17 1002.24 1001.29 1000.31 999.30 998.25 997.16 996.02 994.86 993.67 992.47 991.27
1016.15 1016.50 1016.79 1017.02 1017.18 1017.29 1017.33 1017.30 1017.21 1017.06 1016.84 1016.57 1016.26 1015.89 1015.48 1015.03 1014.55 1014.03 1013.47 1012.87 1012.22 1011.53 1010.78 1010.00 1009.17 1008.31 1007.42 1006.52 1005.61 1004.69 1003.76 1002.82 1001.87 1000.89 999.88 998.83 997.73 996.59 995.40 994.18 992.95 991.71 990.48
1016.37 1016.71 1016.99 1017.21 1017.36 1017.45 1017.46 1017.39 1017.25 1017.04 1016.76 1016.43 1016.06 1015.64 1015.20 1014.73 1014.23 1013.70 1013.14 1012.54 1011.89 1011.20 1010.45 1009.65 1008.81 1007.94 1007.05 1006.13 1005.22 1004.30 1003.37 1002.44 1001.49 1000.52 999.50 998.44 997.33 996.16 994.95 993.71 992.44 991.18 989.95
1016.58 1016.90 1017.17 1017.37 1017.50 1017.55 1017.52 1017.41 1017.21 1016.94 1016.61 1016.23 1015.80 1015.35 1014.88 1014.39 1013.88 1013.35 1012.79 1012.19 1011.53 1010.83 1010.07 1009.25 1008.40 1007.51 1006.61 1005.70 1004.79 1003.88 1002.98 1002.08 1001.16 1000.21 999.22 998.18 997.08 995.92 994.71 993.46 992.19 990.93 989.71
1016.78 1017.07 1017.31 1017.48 1017.58 1017.60 1017.52 1017.35 1017.10 1016.78 1016.40 1015.97 1015.52 1015.04 1014.56 1014.06 1013.55 1013.02 1012.45 1011.84 1011.18 1010.45 1009.67 1008.84 1007.97 1007.08 1006.17 1005.27 1004.38 1003.51 1002.65 1001.79 1000.92 1000.02 999.08 998.08 997.00 995.86 994.66 993.42 992.16 990.91 989.71
1016.96 1017.21 1017.41 1017.54 1017.60 1017.56 1017.43 1017.21 1016.91 1016.54 1016.12 1015.67 1015.19 1014.71 1014.23 1013.74 1013.23 1012.70 1012.13 1011.51 1010.84 1010.10 1009.30 1008.45 1007.57 1006.68 1005.78 1004.91 1004.05 1003.23 1002.42 1001.63 1000.82 999.98 999.08 998.12 997.08 995.96 994.77 993.54 992.29 991.05 989.87
Thickness
5719 5722 5726 5729 5734 5737 5740 5741 5742 5742 5739 5733 5726 5720 5717 5716 5714 5712 5709 5705 5702 5699 5695 5693 5691 5686 5683 5681 5678 5672 5668 5665 5658 5652 5653 5655 5654 5655 5655 5649 5646 5645 5642
5713 5715 5718 5720 5722 5725 5727 5729 5730 5732 5732 5729 5724 5718 5714 5710 5707 5705 5702 5700 5698 5696 5693 5690 5688 5685 5681 5678 5674 5668 5663 5661 5654 5648 5644 5648 5653 5657 5651 5647 5644 5642 5637
5705 5706 5707 5709 5711 5712 5713 5716 5717 5718 5719 5720 5717 5712 5707 5702 5698 5695 5693 5692 5690 5688 5686 5685 5683 5681 5676 5673 5669 5663 5655 5653 5651 5644 5637 5635 5643 5644 5644 5641 5639 5636 5633
5697 5697 5697 5699 5700 5700 5702 5704 5704 5704 5704 5705 5703 5698 5692 5687 5684 5682 5681 5680 5679 5677 5675 5674 5672 5670 5668 5664 5662 5658 5652 5647 5645 5642 5637 5633 5631 5625 5633 5636 5631 5628 5627
5690 5689 5689 5690 5690 5691 5692 5693 5693 5692 5690 5689 5687 5684 5679 5675 5673 5671 5668 5667 5665 5663 5661 5660 5658 5657 5655 5653 5651 5648 5644 5640 5637 5634 5631 5626 5623 5618 5613 5622 5628 5624 5623
5682 5682 5682 5683 5683 5683 5683 5682 5681 5678 5676 5675 5673 5669 5665 5661 5659 5656 5653 5651 5650 5648 5646 5645 5643 5641 5639 5638 5636 5634 5632 5629 5626 5624 5621 5617 5614 5613 5608 5609 5615 5617 5623
5676 5675 5675 5675 5675 5674 5672 5671 5669 5665 5662 5660 5658 5654 5650 5646 5642 5638 5636 5634 5633 5631 5630 5628 5626 5624 5622 5620 5619 5618 5616 5615 5613 5611 5610 5609 5609 5608 5605 5604 5607 5608 5613
5670 5670 5669 5668 5666 5665 5662 5659 5655 5651 5648 5645 5642 5638 5635 5630 5626 5622 5619 5617 5615 5614 5612 5611 5609 5607 5605 5603 5602 5600 5599 5599 5598 5598 5597 5597 5597 5596 5595 5594 5595 5599 5604
5666 5664 5662 5660 5658 5655 5650 5646 5642 5637 5633 5630 5627 5623 5619 5615 5611 5607 5603 5600 5597 5596 5593 5591 5590 5588 5586 5583 5581 5580 5579 5579 5579 5579 5580 5580 5581 5580 5579 5578 5577 5576 5583
5659 5657 5654 5651 5647 5643 5637 5632 5628 5623 5620 5617 5613 5610 5605 5600 5596 5592 5588 5584 5580 5577 5574 5572 5569 5567 5564 5562 5560 5558 5558 5558 5558 5557 5557 5558 5559 5559 5560 5559 5559 5558 5557
5653 5649 5645 5641 5635 5629 5623 5619 5615 5611 5607 5603 5599 5595 5590 5585 5580 5575 5570 5566 5562 5558 5554 5551 5547 5545 5542 5539 5537 5535 5535 5535 5535 5535 5535 5536 5536 5537 5539 5539 5539 5540 5539
5647 5641 5636 5629 5622 5615 5610 5606 5602 5598 5594 5589 5584 5579 5574 5568 5563 5558 5553 5549 5544 5539 5534 5530 5526 5522 5519 5516 5513 5512 5511 5509 5511 5512 5513 5514 5514 5515 5516 5516 5519 5521 5522
5636 5629 5622 5615 5608 5602 5597 5592 5587 5582 5578 5573 5567 5561 5555 5549 5544 5539 5534 5529 5524 5519 5513 5507 5502 5497 5493 5490 5488 5487 5487 5487 5487 5487 5488 5489 5490 5493 5495 5496 5499 5502 5506
5625 5616 5607 5600 5594 5588 5581 5575 5569 5564 5559 5553 5547 5540 5534 5528 5523 5518 5512 5506 5499 5493 5487 5481 5476 5471 5468 5466 5464 5463 5465 5466 5466 5465 5465 5465 5466 5467 5471 5476 5480 5483 5487
5613 5603 5592 5583 5577 5570 5564 5558 5552 5546 5540 5534 5527 5520 5514 5507 5501 5495 5488 5481 5473 5466 5460 5456 5452 5448 5445 5444 5441 5444 5446 5446 5446 5446 5445 5446 5446 5445 5447 5450 5456 5460 5466
5598 5586 5577 5567 5559 5553 5548 5541 5534 5528 5521 5514 5506 5500 5493 5485 5477 5469 5462 5454 5447 5441 5435 5432 5429 5428 5426 5424 5425 5425 5426 5425 5424 5427 5429 5430 5431 5429 5428 5429 5433 5437 5441
5581 5571 5561 5553 5546 5539 5531 5524 5517 5510 5502 5494 5485 5478 5470 5461 5452 5443 5435 5429 5423 5419 5415 5412 5409 5409 5408 5408 5407 5405 5404 5403 5402 5403 5406 5411 5412 5407 5407 5414 5420 5425 5426
5564 5554 5545 5538 5531 5523 5514 5506 5498 5490 5482 5472 5462 5454 5446 5437 5428 5419 5412 5407 5404 5400 5397 5395 5393 5391 5391 5389 5387 5385 5384 5382 5380 5379 5380 5384 5388 5386 5383 5391 5402 5412 5418
5548 5539 5531 5523 5514 5505 5496 5488 5479 5470 5460 5450 5440 5431 5422 5413 5406 5399 5394 5390 5387 5385 5381 5379 5376 5374 5373 5369 5366 5363 5361 5360 5358 5358 5358 5358 5360 5363 5361 5365 5376 5392 5407
5535 5525 5516 5507 5497 5487 5478 5469 5459 5449 5439 5428 5418 5408 5399 5392 5386 5382 5377 5373 5370 5368 5365 5363 5358 5354 5352 5348 5344 5339 5337 5336 5336 5337 5337 5335 5336 5340 5343 5345 5355 5371 5388
5519 5509 5498 5487 5477 5468 5459 5449 5438 5427 5417 5407 5398 5389 5381 5374 5370 5366 5360 5356 5354 5351 5347 5345 5341 5335 5330 5326 5321 5318 5314 5312 5313 5314 5316 5317 5319 5324 5330 5335 5345 5357 5371
5500 5489 5478 5468 5458 5448 5438 5426 5415 5406 5397 5389 5381 5374 5366 5359 5355 5348 5344 5338 5332 5329 5325 5322 5320 5316 5309 5303 5299 5297 5294 5291 5290 5293 5296 5300 5306 5313 5321 5330 5340 5351 5362
5479 5469 5459 5448 5437 5427 5416 5404 5395 5387 5380 5372 5364 5358 5353 5346 5339 5331 5325 5321 5313 5305 5300 5296 5293 5292 5288 5282 5278 5277 5277 5277 5277 5279 5283 5288 5295 5303 5313 5323 5334 5345 5355
5460 5450 5439 5428 5416 5405 5394 5385 5377 5371 5363 5356 5350 5345 5339 5333 5326 5316 5307 5298 5290 5281 5276 5271 5267 5266 5265 5262 5261 5262 5264 5267 5269 5272 5277 5281 5285 5293 5304 5317 5328 5338 5349
5442 5432 5420 5409 5397 5386 5375 5368 5362 5355 5349 5343 5338 5332 5325 5316 5308 5300 5289 5279 5271 5257 5250 5247 5244 5243 5245 5246 5246 5247 5253 5256 5260 5266 5270 5273 5278 5288 5299 5312 5324 5335 5346
5424 5413 5401 5390 5380 5369 5361 5354 5349 5342 5336 5332 5326 5318 5308 5298 5287 5279 5276 5270 5256 5248 5240 5234 5231 5232 5232 5235 5237 5240 5244 5247 5251 5255 5258 5263 5269 5279 5292 5306 5320 5332 5342